| time (UTC) | temp F | wind direction | speed MPH | gust MPH | rain 1hr in | rain 24hr in | rain mn in | humidity % | barometer mb |
| 20260509001528 | 56 | 198 | 0.0 | 0.0 | 0.00 | 0.10 | 0.04 | 86 | 1007.7 |
| 20260509000026 | 57 | 198 | 0.0 | 0.0 | 0.00 | 0.10 | 0.04 | 86 | 1007.8 |
| 20260508234530 | 57 | 198 | 0.0 | 0.0 | 0.00 | 0.10 | 0.04 | 88 | 1007.8 |
| 20260508233024 | 56 | 198 | 0.0 | 0.0 | 0.00 | 0.10 | 0.04 | 87 | 1007.9 |
| 20260508231524 | 57 | 202 | 0.0 | 0.0 | 0.00 | 0.10 | 0.04 | 86 | 1008.0 |
| 20260508230034 | 56 | 202 | 0.0 | 0.0 | 0.00 | 0.10 | 0.04 | 86 | 1008.0 |
| 20260508224526 | 56 | 207 | 0.0 | 0.0 | 0.00 | 0.10 | 0.04 | 86 | 1008.0 |
| 20260508223027 | 56 | 208 | 0.0 | 0.0 | 0.00 | 0.10 | 0.04 | 85 | 1008.1 |
| 20260508221521 | 56 | 193 | 0.0 | 0.0 | 0.00 | 0.10 | 0.04 | 85 | 1008.1 |
| 20260508220026 | 56 | 204 | 0.0 | 0.0 | 0.01 | 0.10 | 0.04 | 85 | 1008.1 |
| 20260508214527 | 56 | 208 | 0.0 | 0.0 | 0.01 | 0.10 | 0.04 | 85 | 1008.0 |
| 20260508213019 | 56 | 213 | 0.0 | 0.0 | 0.01 | 0.10 | 0.04 | 85 | 1008.1 |
| 20260508211532 | 56 | 211 | 0.0 | 0.0 | 0.01 | 0.10 | 0.04 | 85 | 1008.4 |
| 20260508210016 | 57 | 194 | 0.0 | 0.0 | 0.00 | 0.09 | 0.03 | 82 | 1008.5 |
| 20260508204516 | 58 | 196 | 0.0 | 0.0 | 0.00 | 0.09 | 0.03 | 80 | 1008.5 |
| 20260508203014 | 58 | 196 | 0.0 | 0.0 | 0.00 | 0.09 | 0.03 | 78 | 1008.5 |
| 20260508201515 | 58 | 196 | 0.0 | 0.0 | 0.00 | 0.09 | 0.03 | 79 | 1008.7 |
| 20260508200009 | 57 | 196 | 0.0 | 0.0 | 0.00 | 0.09 | 0.03 | 78 | 1009.0 |
| 20260508194521 | 57 | 196 | 0.0 | 0.0 | 0.00 | 0.09 | 0.03 | 79 | 1009.1 |
| 20260508193005 | 57 | 196 | 0.0 | 0.0 | 0.00 | 0.09 | 0.03 | 80 | 1009.3 |
| 20260508191505 | 57 | 196 | 0.0 | 0.0 | 0.00 | 0.09 | 0.03 | 80 | 1009.4 |
| 20260508190011 | 57 | 196 | 0.0 | 0.0 | 0.00 | 0.09 | 0.03 | 80 | 1009.6 |
| 20260508184608 | 57 | 196 | 0.0 | 0.0 | 0.00 | 0.09 | 0.03 | 81 | 1009.9 |
| 20260508183125 | 56 | 196 | 0.0 | 0.0 | 0.00 | 0.09 | 0.03 | 82 | 1010.1 |
| 20260508181605 | 55 | 196 | 0.0 | 0.0 | 0.00 | 0.09 | 0.03 | 85 | 1010.4 |
| 20260508180051 | 54 | 196 | 0.0 | 0.0 | 0.00 | 0.09 | 0.03 | 85 | 1010.6 |
| 20260508174552 | 53 | 196 | 0.0 | 0.0 | 0.01 | 0.09 | 0.03 | 87 | 1010.8 |
| 20260508173047 | 53 | 195 | 0.0 | 0.0 | 0.01 | 0.09 | 0.03 | 88 | 1011.1 |
| 20260508171547 | 53 | 195 | 0.0 | 0.0 | 0.01 | 0.09 | 0.03 | 88 | 1011.4 |
| 20260508170053 | 53 | 195 | 0.0 | 0.0 | 0.01 | 0.09 | 0.03 | 87 | 1011.5 |
| 20260508164548 | 53 | 193 | 0.0 | 0.0 | 0.00 | 0.08 | 0.02 | 86 | 1011.5 |
| 20260508163045 | 53 | 198 | 0.0 | 0.0 | 0.00 | 0.08 | 0.02 | 85 | 1011.8 |
| 20260508161546 | 54 | 190 | 0.0 | 0.0 | 0.01 | 0.08 | 0.02 | 86 | 1011.4 |
| 20260508160043 | 54 | 190 | 0.0 | 0.0 | 0.01 | 0.08 | 0.02 | 86 | 1011.7 |
| 20260508154603 | 53 | 221 | 0.0 | 0.0 | 0.02 | 0.08 | 0.02 | 88 | 1011.7 |
| 20260508153038 | 52 | 226 | 0.0 | 0.0 | 0.02 | 0.08 | 0.02 | 89 | 1011.8 |
| 20260508151539 | 51 | 226 | 0.0 | 0.0 | 0.01 | 0.07 | 0.01 | 87 | 1012.1 |
| 20260508150038 | 51 | 221 | 0.0 | 0.0 | 0.01 | 0.07 | 0.01 | 86 | 1012.3 |
| 20260508144539 | 52 | 224 | 0.0 | 0.0 | 0.00 | 0.06 | 0.00 | 85 | 1012.4 |
| 20260508143035 | 52 | 223 | 0.0 | 0.0 | 0.00 | 0.06 | 0.00 | 83 | 1012.3 |
| 20260508141535 | 52 | 223 | 0.0 | 0.0 | 0.00 | 0.06 | 0.00 | 84 | 1012.1 |
| 20260508140036 | 51 | 223 | 0.0 | 0.0 | 0.00 | 0.06 | 0.00 | 83 | 1012.2 |
| 20260508134545 | 51 | 223 | 0.0 | 0.0 | 0.00 | 0.06 | 0.00 | 83 | 1012.3 |
| 20260508133045 | 51 | 223 | 0.0 | 0.0 | 0.00 | 0.06 | 0.00 | 83 | 1011.9 |
| 20260508131531 | 51 | 225 | 0.0 | 0.0 | 0.00 | 0.06 | 0.00 | 84 | 1012.2 |
| 20260508130033 | 51 | 223 | 0.0 | 0.0 | 0.00 | 0.06 | 0.00 | 84 | 1012.2 |
| 20260508124533 | 50 | 230 | 0.0 | 0.0 | 0.00 | 0.06 | 0.00 | 85 | 1012.1 |
| 20260508123042 | 49 | 223 | 0.0 | 0.0 | 0.00 | 0.06 | 0.00 | 86 | 1012.0 |
| 20260508121528 | 49 | 227 | 0.0 | 0.0 | 0.00 | 0.06 | 0.00 | 87 | 1012.0 |
| 20260508120020 | 48 | 227 | 0.0 | 0.0 | 0.00 | 0.06 | 0.00 | 87 | 1012.1 |
| 20260508114517 | 47 | 227 | 0.0 | 0.0 | 0.00 | 0.06 | 0.00 | 87 | 1011.9 |
| 20260508113019 | 46 | 227 | 0.0 | 0.0 | 0.00 | 0.06 | 0.00 | 87 | 1011.9 |
| 20260508111516 | 46 | 227 | 0.0 | 0.0 | 0.00 | 0.06 | 0.00 | 87 | 1011.6 |
| 20260508110015 | 46 | 227 | 0.0 | 0.0 | 0.00 | 0.06 | 0.00 | 86 | 1011.6 |
| 20260508104515 | 45 | 228 | 0.0 | 0.0 | 0.00 | 0.06 | 0.00 | 87 | 1011.3 |
| 20260508103017 | 45 | 228 | 0.0 | 0.0 | 0.00 | 0.06 | 0.00 | 88 | 1011.1 |
| 20260508101513 | 45 | 228 | 0.0 | 0.0 | 0.00 | 0.06 | 0.00 | 87 | 1011.2 |
| 20260508100012 | 45 | 228 | 0.0 | 0.0 | 0.00 | 0.06 | 0.00 | 87 | 1011.3 |
| 20260508094511 | 46 | 227 | 0.0 | 0.0 | 0.00 | 0.06 | 0.00 | 86 | 1011.3 |
| 20260508093016 | 46 | 233 | 0.0 | 0.0 | 0.00 | 0.06 | 0.00 | 86 | 1011.5 |
| 20260508091510 | 46 | 229 | 0.0 | 0.0 | 0.00 | 0.06 | 0.00 | 86 | 1011.5 |
| 20260508090014 | 46 | 231 | 0.0 | 0.0 | 0.00 | 0.06 | 0.00 | 87 | 1011.6 |
| 20260508084509 | 45 | 259 | 0.0 | 0.0 | 0.00 | 0.06 | 0.00 | 88 | 1011.5 |
| 20260508083009 | 45 | 259 | 0.0 | 0.0 | 0.00 | 0.06 | 0.00 | 89 | 1011.4 |
| 20260508081508 | 44 | 261 | 0.0 | 0.0 | 0.00 | 0.06 | 0.00 | 89 | 1011.4 |
| 20260508080007 | 44 | 261 | 0.0 | 0.0 | 0.00 | 0.06 | 0.00 | 90 | 1011.4 |
| 20260508074507 | 44 | 261 | 0.0 | 0.0 | 0.00 | 0.06 | 0.00 | 90 | 1011.3 |
| 20260508073007 | 44 | 261 | 0.0 | 0.0 | 0.00 | 0.06 | 0.00 | 90 | 1011.5 |
| 20260508071503 | 44 | 263 | 0.0 | 0.0 | 0.00 | 0.06 | 0.00 | 90 | 1011.5 |
| 20260508070001 | 44 | 263 | 0.0 | 0.0 | 0.00 | 0.06 | 0.00 | 91 | 1011.8 |
| 20260508064619 | 44 | 264 | 0.0 | 0.0 | 0.00 | 0.06 | 0.00 | 91 | 1011.9 |
| 20260508063109 | 44 | 265 | 0.0 | 0.0 | 0.00 | 0.06 | 0.00 | 91 | 1012.0 |
| 20260508061607 | 44 | 265 | 0.0 | 0.0 | 0.00 | 0.06 | 0.00 | 91 | 1012.1 |
| 20260508060104 | 44 | 265 | 0.0 | 0.0 | 0.00 | 0.06 | 0.00 | 91 | 1012.2 |
| 20260508054553 | 45 | 265 | 0.0 | 0.0 | 0.00 | 0.06 | 0.00 | 91 | 1012.3 |
| 20260508053055 | 44 | 265 | 0.0 | 0.0 | 0.00 | 0.06 | 0.00 | 91 | 1012.4 |
| 20260508051606 | 45 | 265 | 0.0 | 0.0 | 0.00 | 0.06 | 0.00 | 90 | 1012.5 |
| 20260508050048 | 45 | 265 | 0.0 | 0.0 | 0.00 | 0.06 | 0.00 | 90 | 1012.5 |
| 20260508044549 | 46 | 265 | 0.0 | 0.0 | 0.00 | 0.06 | 0.00 | 90 | 1012.5 |
| 20260508043044 | 46 | 265 | 0.0 | 0.0 | 0.00 | 0.06 | 0.00 | 90 | 1012.5 |
| 20260508041542 | 47 | 265 | 0.0 | 0.0 | 0.00 | 0.06 | 0.00 | 89 | 1012.5 |
| 20260508040049 | 47 | 265 | 0.0 | 0.0 | 0.02 | 0.06 | 0.00 | 89 | 1012.5 |
| 20260508034545 | 47 | 274 | 0.0 | 0.0 | 0.05 | 0.06 | 0.06 | 89 | 1012.6 |
| 20260508033031 | 47 | 275 | 0.0 | 0.0 | 0.06 | 0.06 | 0.06 | 88 | 1012.6 |
| 20260508031533 | 48 | 275 | 0.0 | 0.0 | 0.06 | 0.06 | 0.06 | 87 | 1012.6 |
| 20260508030022 | 48 | 262 | 0.0 | 0.0 | 0.04 | 0.04 | 0.04 | 85 | 1013.5 |
| 20260508024540 | 49 | 229 | 0.0 | 0.0 | 0.01 | 0.01 | 0.01 | 81 | 1013.4 |
| 20260508023014 | 49 | 217 | 0.0 | 0.0 | 0.00 | 0.00 | 0.00 | 76 | 1012.7 |
| 20260508021509 | 49 | 217 | 0.0 | 0.0 | 0.00 | 0.00 | 0.00 | 75 | 1012.3 |
| 20260508020005 | 49 | 217 | 0.0 | 0.0 | 0.00 | 0.00 | 0.00 | 76 | 1012.2 |
| 20260508014601 | 49 | 217 | 0.0 | 0.0 | 0.00 | 0.00 | 0.00 | 75 | 1012.1 |
| 20260508013056 | 50 | 217 | 0.0 | 0.0 | 0.00 | 0.00 | 0.00 | 73 | 1012.2 |
| 20260508011559 | 50 | 217 | 0.0 | 0.0 | 0.00 | 0.00 | 0.00 | 71 | 1012.1 |
| 20260508010053 | 50 | 217 | 0.0 | 0.0 | 0.00 | 0.00 | 0.00 | 71 | 1012.1 |
| 20260508004551 | 50 | 217 | 0.0 | 0.0 | 0.00 | 0.00 | 0.00 | 71 | 1012.1 |
| 20260508003039 | 51 | 217 | 0.0 | 0.0 | 0.00 | 0.00 | 0.00 | 71 | 1012.2 |